When you browse on this site, cookies collect data to enhance your experience and personalize the content and advertising you see.
Visit our Privacy Policy to learn more. By continuing to use the site, you agree to this use of cookies and data.
  • In Österreich
  • Länderverzeichnis
  • Für 7 Tage
  • Wassertemperatur
  • Satellitenkarten
  • Wetterkarte
  • News
  • Widgets
  • user-avatar
    Anmelden

    Stündliche Wetter Melbourne

    Heute, 26 Mai, Sonntag

    Zeit Temperatur Niederschläge Wind Luftdruck Luftfeuchtigkeit
    00:00 +12°C° 0 mm 5 m/S 757 mmHg 75%
    01:00 +10°C° 0 mm 5 m/S 758 mmHg 75%
    02:00 +10°C° 0 mm 5 m/S 758 mmHg 75%
    03:00 +10°C° 0 mm 4 m/S 758 mmHg 76%
    04:00 +10°C° 0 mm 4 m/S 758 mmHg 77%
    05:00 +10°C° 0 mm 4 m/S 758 mmHg 77%
    06:00 +8°C° 0 mm 4 m/S 758 mmHg 77%
    07:00 +8°C° 0 mm 4 m/S 759 mmHg 77%
    08:00 +10°C° 0 mm 4 m/S 759 mmHg 72%
    09:00 +11°C° 0 mm 4 m/S 759 mmHg 67%
    10:00 +12°C° 0 mm 5 m/S 759 mmHg 62%
    11:00 +13°C° 0 mm 5 m/S 758 mmHg 58%
    12:00 +14°C° 0 mm 5 m/S 758 mmHg 53%
    13:00 +15°C° 0 mm 5 m/S 757 mmHg 49%
    14:00 +14°C° 0 mm 6 m/S 757 mmHg 52%
    15:00 +14°C° 0 mm 6 m/S 756 mmHg 54%
    16:00 +14°C° 0 mm 6 m/S 756 mmHg 57%
    17:00 +12°C° 0 mm 7 m/S 755 mmHg 59%
    18:00 +12°C° 0 mm 7 m/S 755 mmHg 62%
    19:00 +12°C° 0 mm 7 m/S 754 mmHg 64%
    20:00 +12°C° 0.8 mm 8 m/S 754 mmHg 67%
    21:00 +12°C° 0.8 mm 8 m/S 754 mmHg 70%
    22:00 +11°C° 0.8 mm 8 m/S 753 mmHg 72%
    23:00 +11°C° 2.2 mm 8 m/S 753 mmHg 72%

    Morgen, 27 Mai, Montag

    Zeit Temperatur Niederschläge Wind Luftdruck Luftfeuchtigkeit
    00:00 +10°C° 2.2 mm 7 m/S 753 mmHg 72%
    01:00 +9°C° 2.2 mm 7 m/S 753 mmHg 72%
    02:00 +8°C° 0 mm 7 m/S 753 mmHg 72%
    03:00 +6°C° 0 mm 7 m/S 753 mmHg 71%
    04:00 +6°C° 0 mm 7 m/S 754 mmHg 71%
    05:00 +6°C° 0 mm 7 m/S 754 mmHg 70%
    06:00 +6°C° 0 mm 7 m/S 754 mmHg 70%
    07:00 +6°C° 0 mm 7 m/S 754 mmHg 69%
    08:00 +6°C° 0.2 mm 8 m/S 754 mmHg 67%
    09:00 +7°C° 0.2 mm 9 m/S 754 mmHg 65%
    10:00 +8°C° 0.2 mm 10 m/S 755 mmHg 63%
    11:00 +9°C° 0.2 mm 10 m/S 755 mmHg 62%
    12:00 +10°C° 0.2 mm 9 m/S 756 mmHg 60%
    13:00 +11°C° 0.2 mm 9 m/S 756 mmHg 58%
    14:00 +11°C° 0.3 mm 9 m/S 756 mmHg 60%
    15:00 +10°C° 0.3 mm 8 m/S 757 mmHg 62%
    16:00 +10°C° 0.3 mm 8 m/S 757 mmHg 64%
    17:00 +9°C° 0.1 mm 7 m/S 758 mmHg 65%
    18:00 +9°C° 0.1 mm 6 m/S 758 mmHg 66%
    19:00 +8°C° 0.1 mm 6 m/S 759 mmHg 68%
    20:00 +8°C° 0 mm 6 m/S 759 mmHg 68%
    21:00 +8°C° 0 mm 5 m/S 759 mmHg 69%
    22:00 +7°C° 0 mm 5 m/S 760 mmHg 70%
    23:00 +7°C° 0 mm 5 m/S 759 mmHg 70%

    übermorgen, 28 Mai, Dienstag

    Zeit Temperatur Niederschläge Wind Luftdruck Luftfeuchtigkeit
    00:00 +8°C° 0 mm 5 m/S 759 mmHg 70%
    01:00 +8°C° 0 mm 5 m/S 759 mmHg 71%
    02:00 +8°C° 0 mm 5 m/S 758 mmHg 72%
    03:00 +8°C° 0 mm 5 m/S 758 mmHg 73%
    04:00 +8°C° 0 mm 5 m/S 758 mmHg 74%
    05:00 +8°C° 0 mm 5 m/S 758 mmHg 74%
    06:00 +8°C° 0 mm 5 m/S 758 mmHg 75%
    07:00 +8°C° 0 mm 5 m/S 757 mmHg 75%
    08:00 +9°C° 0 mm 5 m/S 757 mmHg 73%
    09:00 +10°C° 0 mm 6 m/S 757 mmHg 71%
    10:00 +11°C° 0 mm 6 m/S 757 mmHg 69%
    11:00 +11°C° 0.1 mm 6 m/S 756 mmHg 67%
    12:00 +13°C° 0.1 mm 6 m/S 755 mmHg 66%
    13:00 +12°C° 0.1 mm 7 m/S 754 mmHg 64%
    14:00 +12°C° 0.3 mm 7 m/S 754 mmHg 67%
    15:00 +13°C° 0.3 mm 6 m/S 753 mmHg 71%
    16:00 +11°C° 0.3 mm 6 m/S 753 mmHg 74%
    17:00 +11°C° 0.3 mm 6 m/S 752 mmHg 74%
    18:00 +11°C° 0.3 mm 6 m/S 752 mmHg 74%
    19:00 +11°C° 0.3 mm 6 m/S 752 mmHg 74%
    20:00 +11°C° 0.4 mm 7 m/S 751 mmHg 73%
    21:00 +10°C° 0.4 mm 7 m/S 751 mmHg 73%
    22:00 +10°C° 0.4 mm 8 m/S 751 mmHg 72%
    23:00 +9°C° 0.4 mm 8 m/S 751 mmHg 72%

    29 Mai, Mittwoch

    Zeit Temperatur Niederschläge Wind Luftdruck Luftfeuchtigkeit
    00:00 +9°C° 0.4 mm 8 m/S 751 mmHg 72%
    01:00 +7°C° 0.4 mm 8 m/S 751 mmHg 72%
    02:00 +7°C° 0.1 mm 8 m/S 751 mmHg 72%
    03:00 +6°C° 0.1 mm 7 m/S 751 mmHg 72%
    04:00 +6°C° 0.1 mm 7 m/S 751 mmHg 72%
    05:00 +6°C° 0.1 mm 7 m/S 751 mmHg 72%
    06:00 +7°C° 0.1 mm 6 m/S 752 mmHg 72%
    07:00 +5°C° 0.1 mm 6 m/S 752 mmHg 72%
    08:00 +7°C° 0.2 mm 6 m/S 752 mmHg 70%
    09:00 +8°C° 0.2 mm 7 m/S 752 mmHg 69%
    10:00 +8°C° 0.2 mm 7 m/S 753 mmHg 68%
    11:00 +9°C° 0.3 mm 7 m/S 753 mmHg 64%
    12:00 +9°C° 0.3 mm 7 m/S 753 mmHg 60%
    13:00 +10°C° 0.3 mm 7 m/S 753 mmHg 56%
    14:00 +9°C° 0.2 mm 7 m/S 753 mmHg 57%
    15:00 +9°C° 0.2 mm 6 m/S 753 mmHg 58%
    16:00 +9°C° 0.2 mm 6 m/S 754 mmHg 58%
    17:00 +8°C° 0.3 mm 6 m/S 754 mmHg 62%
    18:00 +7°C° 0.3 mm 6 m/S 754 mmHg 65%
    19:00 +7°C° 0.3 mm 6 m/S 755 mmHg 69%
    20:00 +7°C° 1.2 mm 6 m/S 755 mmHg 70%
    21:00 +8°C° 1.2 mm 7 m/S 756 mmHg 72%
    22:00 +7°C° 1.2 mm 8 m/S 757 mmHg 73%
    23:00 +8°C° 0.8 mm 7 m/S 757 mmHg 74%

    30 Mai, Donnerstag

    Zeit Temperatur Niederschläge Wind Luftdruck Luftfeuchtigkeit
    00:00 +7°C° 0.8 mm 6 m/S 758 mmHg 75%
    01:00 +7°C° 0.8 mm 5 m/S 758 mmHg 75%
    02:00 +7°C° 0.2 mm 4 m/S 759 mmHg 75%
    03:00 +7°C° 0.2 mm 4 m/S 760 mmHg 75%
    04:00 +8°C° 0.2 mm 3 m/S 761 mmHg 75%
    05:00 +7°C° 0.5 mm 4 m/S 762 mmHg 76%
    06:00 +7°C° 0.5 mm 4 m/S 763 mmHg 77%
    07:00 +7°C° 0.5 mm 4 m/S 764 mmHg 78%
    08:00 +8°C° 0.5 mm 4 m/S 764 mmHg 75%
    09:00 +9°C° 0.5 mm 5 m/S 765 mmHg 72%
    10:00 +10°C° 0.5 mm 5 m/S 766 mmHg 69%
    11:00 +10°C° 0.3 mm 5 m/S 766 mmHg 65%
    12:00 +11°C° 0.3 mm 6 m/S 767 mmHg 62%
    13:00 +11°C° 0.3 mm 6 m/S 767 mmHg 58%
    14:00 +11°C° 0.2 mm 6 m/S 767 mmHg 60%
    15:00 +12°C° 0.2 mm 5 m/S 767 mmHg 63%
    16:00 +10°C° 0.2 mm 5 m/S 768 mmHg 65%
    17:00 +10°C° 0.1 mm 5 m/S 769 mmHg 67%
    18:00 +10°C° 0.1 mm 4 m/S 769 mmHg 69%
    19:00 +10°C° 0.1 mm 4 m/S 770 mmHg 71%
    20:00 +10°C° 0.1 mm 4 m/S 771 mmHg 72%
    21:00 +10°C° 0.1 mm 4 m/S 771 mmHg 74%
    22:00 +10°C° 0.1 mm 4 m/S 772 mmHg 75%
    23:00 +10°C° 0.1 mm 4 m/S 772 mmHg 76%

    31 Mai, Freitag

    Zeit Temperatur Niederschläge Wind Luftdruck Luftfeuchtigkeit
    00:00 +10°C° 0.1 mm 4 m/S 772 mmHg 78%
    01:00 +10°C° 0.1 mm 3 m/S 772 mmHg 79%
    02:00 +10°C° 0.1 mm 3 m/S 772 mmHg 81%
    03:00 +10°C° 0.1 mm 3 m/S 772 mmHg 83%
    04:00 +10°C° 0.1 mm 3 m/S 772 mmHg 85%
    05:00 +10°C° 0.1 mm 3 m/S 773 mmHg 86%
    06:00 +10°C° 0.1 mm 3 m/S 773 mmHg 87%
    07:00 +10°C° 0.1 mm 2 m/S 773 mmHg 88%
    08:00 +10°C° 0.1 mm 3 m/S 774 mmHg 87%
    09:00 +11°C° 0.1 mm 3 m/S 774 mmHg 86%
    10:00 +12°C° 0.1 mm 3 m/S 774 mmHg 84%
    11:00 +12°C° 0.1 mm 3 m/S 774 mmHg 82%
    12:00 +13°C° 0.1 mm 3 m/S 774 mmHg 80%
    13:00 +14°C° 0.1 mm 3 m/S 773 mmHg 78%
    14:00 +13°C° 0.1 mm 3 m/S 773 mmHg 78%
    15:00 +13°C° 0.1 mm 3 m/S 774 mmHg 79%
    16:00 +13°C° 0.1 mm 3 m/S 774 mmHg 80%
    17:00 +13°C° 0.1 mm 3 m/S 774 mmHg 83%
    18:00 +12°C° 0.1 mm 3 m/S 774 mmHg 85%
    19:00 +13°C° 0.1 mm 2 m/S 775 mmHg 88%
    20:00 +13°C° 0.1 mm 2 m/S 775 mmHg 89%
    21:00 +12°C° 0.1 mm 2 m/S 775 mmHg 89%
    22:00 +12°C° 0.1 mm 2 m/S 775 mmHg 90%
    23:00 +11°C° 0.1 mm 3 m/S 775 mmHg 90%
    Mehr zeigen